Location: Bailleul
(50.3375°N, 2.8513°E)
Time: 19:19:02
(UTC+00:00)

Terra - Pass Details

Date: 03 August 2021
Orbit: 701 x 703 km, 98.2° (Epoch: 17 September)

Event Time Altitude Azimuth Distance (km) Brightness Sun altitude
Exits shadow 22:45:22 16° 230° (SW) 1,823 3.7 -20.7°
Maximum altitude 22:47:47 22° 268° (W) 1,512 3.7 -20.8°
Drops below altitude 10° 22:51:30 10° 320° (NW) 2,183 5.3 -21.0°
Sets 22:54:15 0° 335° (NNW) 3,107 6.6 -21.1°
